Location: Sungai Nanyan
(2.7833°N, 113.7333°E)
Time: 04:42:04
(UTC+00:00)

Daily predictions for brighter satellites

Satellite Brightness Start Highest point End
(mag) Time Altitude Azimuth Time Altitude Azimuth Time Altitude Azimuth
Meteor 1-25 Rocket 4.3 10:29:34 10° N 10:35:11 90° W 10:40:55 10° S
Cosmos 2026 Rocket 3.9 10:33:05 10° N 10:39:07 76° E 10:45:10 10° S
GPS 2-14 Rocket1 3.5 10:36:25 10° NW 10:39:52 32° NNE 10:43:24 10° E
ARIANE 5 R/B 0.1 10:38:14 10° W 10:40:07 86° S 10:43:03 10° E
Cosmos 921 Rocket 3.6 10:39:41 10° SSW 10:43:47 58° W 10:47:53 10° N
ARGOS 3.7 10:40:16 10° SE 10:45:09 35° ENE 10:50:00 10° NNE
Cosmos 1937 Rocket 4.0 10:43:01 10° N 10:47:53 37° ENE 10:52:41 10° SE
Okean O Rocket 2.3 10:43:59 10° SE 10:47:57 33° ENE 10:51:55 10° NNE
NOSS 3-1 (C) 4.4 10:39:49 10° NNW 10:48:34 63° ENE 10:57:33 10° SSE
ARIANE 5 R/B 3.7 10:47:26 10° WSW 10:51:04 58° S 11:11:54 10° E
Cosmos 1666 3.3 10:48:14 10° NNE 10:51:33 32° E 10:54:53 10° SSE
CZ-4B R/B 3.2 10:51:34 12° E 10:52:00 12° E 10:53:13 10° SE
PAYLOAD B 4.3 10:46:44 10° SSE 10:52:20 87° ENE 10:57:56 10° NNW
Meteor 2-14 Rocket 4.5 10:47:15 10° N 10:53:18 88° W 10:59:22 10° S
Milstar 3 Cent rocket 3.7 10:49:32 10° W 10:53:38 30° SSW 10:58:22 10° SE
ARIANE 3 DEB 2.3 10:52:55 10° WSW 10:55:05 48° S 10:57:30 14° E
BLOCK DM-SL R/B 3.1 10:51:20 10° W 10:55:41 64° S 11:00:25 10° E
Cosmos 990 Rocket 4.3 10:51:36 10° NNW 10:56:42 70° WSW 11:01:48 10° S
CZ-4B R/B 3.2 10:55:04 10° SSE 11:00:36 68° ENE 11:06:01 10° N
IRAS Rocket 4.2 10:55:13 10° NNE 11:00:44 90° ESE 11:06:20 10° SSW
ARIANE 2 DEB 3.9 10:59:18 10° WNW 11:02:01 41° N 11:05:12 17° ENE
VEP-3 3.0 10:56:32 10° WSW 11:02:28 62° NNW 11:08:00 15° NE
Cosmos 1633 Rocket 3.3 10:58:45 10° NNE 11:02:57 47° E 11:07:12 10° SSE
ARIANE 5 DEB (SYLDA) 2.5 11:05:58 10° SW 11:07:10 22° S 11:07:32 20° SSE
Atlas Centaur 2 1.8 11:04:50 10° NNW 11:08:05 32° NNE 11:09:38 23° ENE
Gbstr 26 Del rocket 4.4 11:09:03 10° SSW 11:15:44 45° SE 11:18:57 24° ENE
CZ-4 R/B 4.3 11:12:30 10° SSE 11:16:37 87° ENE 11:20:43 10° N
SL-08 RB Rocket 3.7 11:14:11 10° SSE 11:18:45 59° E 11:23:19 10° N
Cosmos 858 Rocket 4.4 11:14:15 10° N 11:19:29 81° ENE 11:24:43 10° SSE
CZ-4 R/B 2.0 11:16:07 10° SE 11:19:57 35° ENE 11:21:29 26° NE
Delta 2 Rocket 4.2 11:16:07 10° WSW 11:20:21 41° NW 11:22:30 22° NNE
GPS 2-12 Rocket1 4.0 11:18:17 10° W 11:22:21 35° NNW 11:24:09 24° NNE
Cosmos 1666 Rocket 4.3 11:23:14 10° NNW 11:27:30 54° W 11:31:44 10° S
Cosmos 2360 4.2 11:23:39 10° NNW 11:29:21 87° WSW 11:35:03 10° SSE
Cosmos 2228 Rocket 2.9 11:25:58 10° S 11:30:21 67° E 11:32:32 28° NNE
Cosmos 1470 Rocket 3.6 11:26:58 14° N 11:30:45 58° E 11:35:10 10° SSE
Meteor 1-11 Rocket 4.3 11:29:45 30° NE 11:31:16 35° E 11:36:31 10° SSE
H-2A R/B 4.3 11:34:55 10° SSW 11:39:21 26° WSW 11:43:40 10° NW
Meteor 1-19 Rocket 4.2 11:44:26 10° S 11:50:25 72° E 11:52:42 39° NNE
